Weather in El Arish

Egypt     31°05′04″N   33°49′42″E
temp.,
°C
wind,
m/s
gust,
m/s
humid.,
%
clouds,
%
prec.,
mm/h
press.,
hPa
HPBL,
m
8 may, sat
sat823:00+22ene11620 0.0 101527
02:00+21sse11610 0.0 101411
05:00+20se22610 0.0 101518
08:00+25se45360 0.0 1015320
11:00+30ese44180 0.0 1014681
14:00+33nne32150 0.0 1012746
17:00+29nne55310 0.0 1012246
20:00+25ne45470 0.0 1013154
9 may, sun
sun923:00+25ese22420 0.0 101222
02:00+26s33315 0.0 101017
05:00+26ssw572419 0.0 100963
08:00+32ssw681417 0.0 1010269
11:00+39wnw4585 0.0 10091305
14:00+34nw8920100 0.0 1009454
17:00+28nw674166 0.0 1009250
20:00+26wnw345180 0.0 1010202
10 may, mon
mon1023:00+24wnw336343 0.0 1011161
02:00+22wnw5880100 0.0 1011308
05:00+21nw358699 0.0 1011238
08:00+23wnw227080 0.0 1011384
11:00+28nw33430 0.0 1011714
14:00+27nnw66450 0.0 1009526
17:00+25nnw55530 0.0 1009473
20:00+23n34620 0.0 1010336
11 may, tue
tue1123:00+22nnw22700 0.0 1010227
02:00+20nw23760 0.0 1009175
05:00+20nw22830 0.0 101035
08:00+22nne22660 0.0 1011501
11:00+27nne54370 0.0 1010784
14:00+27nne77300 0.0 1009630
17:00+24n67480 0.0 1009557
20:00+22nne46580 0.0 1010421
12 may, wed
wed1223:00+22nne34660 0.0 1010295
02:00+21n22720 0.0 101042
05:00+20n22740 0.0 101023
08:00+22ne22570 0.0 1011450
11:00+26n54420 0.0 1011739
14:00+26n66450 0.0 1010679
17:00+24n56550 0.0 1010579
20:00+22n45660 0.0 1011389